Regional Weather Roundup
Issued by NWS Albany, NY

Home | Current Version | Previous Version | Graphics & Text | Print | Product List | Glossary On
Versions: 1 2 3 4 5 6 7 8 9 10 11 12 13 14 15 16 17 18 19 20 21 22 23 24 25 26 27 28 29 30 31 32 33 34 35 36 37 38 39 40 41 42 43 44 45 46 47 48 49 50
000
ASUS41 KALY 040410
RWRALY

NEW YORK STATE HOURLY WEATHER ROUNDUP
NATIONAL WEATHER SERVICE ALBANY NY
1200 AM EDT SAT JUL 04 2015

NOTE: "FAIR" INDICATES FEW OR NO CLOUDS BELOW 12,000 FEET WITH NO
SIGNIFICANT WEATHER AND/OR NO OBSTRUCTIONS TO VISIBILITY.

NYZ032-033-038>043-046>054-057>066-NYZ062>081-040500-
EAST


CITY           SKY/WX    TMP DP  RH WIND       PRES   REMARKS
ALBANY         MOCLDY    62  51  67 CALM      29.98R
GLENS FALLS    MOCLDY    58  55  90 CALM      29.98R
POUGHKEEPSIE   MOCLDY    63  56  78 SE3       29.96S
NEWBURGH       MOCLDY    68  57  68 VRB5      29.99S
MONTGOMERY     PTCLDY    63  58  83 CALM      29.97S
WHITE PLAINS   MOCLDY    66  59  78 E5        29.99S
ISLIP          CLOUDY    69  60  73 S5        29.98S
NEW YORK CITY  MOCLDY    72  59  63 S7        29.97F
CENTRAL PARK   MOCLDY    71  58  63 VRB5      30.00F
$$

NYZ005>009-017-018-044>046-055-056-040500-
CENTRAL


CITY           SKY/WX    TMP DP  RH WIND       PRES   REMARKS
FULTON         MOCLDY    58  51  78 CALM      29.93S
SYRACUSE       MOCLDY    62  55  77 E3        29.94R
ROME           PTCLDY    57  52  83 SE6       29.97S
ELMIRA         PTCLDY    59  58  96 CALM      29.94R
BINGHAMTON     MOCLDY    63  53  70 SE5       29.97S
MONTICELLO     MOCLDY    61  55  82 NE3       30.01S
$$

NYZ026>034-041>043-040500-
NORTH


CITY           SKY/WX    TMP DP  RH WIND       PRES   REMARKS
WATERTOWN      MOCLDY    53  50  89 E3        29.95S
FORT DRUM      NOT AVBL
MASSENA        MOCLDY    56  52  86 CALM      29.96R
SARANAC LAKE   CLOUDY    49  47  93 CALM      30.00R
PLATTSBURGH    MOCLDY    57  54  89 CALM      29.96R
$$

NYZ001>004-010>016-019>021-040500-
WEST


CITY           SKY/WX    TMP DP  RH WIND       PRES   REMARKS
NIAGARA FALLS  CLOUDY    61  48  62 N6        29.92F
BUFFALO        CLOUDY    63  50  62 N6        29.92F
DUNKIRK        CLOUDY    61  58  90 CALM      29.92F
JAMESTOWN      CLOUDY    61  52  72 NW5       29.95S
WELLSVILLE     CLOUDY    66  58  75 S6        29.99R
ROCHESTER      CLOUDY    64  46  52 NE5       29.94R
PENN YAN       MOCLDY    62  57  83 CALM      29.94S
$$

             KEY
       WCI = WIND CHILL INDEX
       VSB = VISIBILITY
       HX  = HEAT INDEX
$$



USA.gov is the U.S. government's official web portal to all federal, state and local government web resources and services.